Theta_e
300 300 299 297 298 298 298 300 300 297 299 291 289 290 290 289 284 287 285 284 286 290 291 288 289 290 291 292 292 293 294 294 294 295 296 296 295 296
298 296 296 295 294 294 294 293 294 295 294 295 290 289 288 286 285 286 284 285 284 287 289 286 287 288 289 289 289 290 290 292 293 294 292 292 293 293
294 294 292 292 291 290 290 290 289 290 290 288 290 288 286 286 285 285 285 283 283 284 285 284 285 285 286 286 287 287 288 290 291 289 289 290 290 291
291 291 288 288 288 289 289 288 288 287 287 287 287 286 285 284 283 283 282 282 282 283 282 282 283 283 284 284 284 284 286 288 286 286 286 287 288 288
290 289 287 287 286 286 287 286 286 285 286 285 284 285 284 284 281 282 281 281 281 281 281 280 281 281 282 283 282 282 285 285 284 284 284 284 285 286
288 287 287 286 286 286 284 285 284 284 284 283 283 282 282 281 280 278 278 280 278 281 279 279 280 280 281 281 280 280 284 282 282 282 282 282 283 284
286 285 285 284 283 284 284 283 283 283 282 281 281 280 280 277 275 276 276 276 278 278 275 276 277 278 278 278 278 279 282 281 281 281 281 281 282 282
283 283 281 281 281 281 281 282 281 281 280 279 279 277 276 275 276 274 274 273 272 276 273 274 277 276 276 276 278 278 280 280 280 280 280 280 280 281
282 281 280 280 281 279 280 280 280 280 279 278 276 275 274 274 274 273 273 271 271 273 272 271 276 273 275 274 277 278 279 279 278 279 279 279 279 279
282 281 279 279 280 279 278 277 277 277 277 276 275 274 274 274 274 272 271 271 272 273 272 268 272 271 272 273 276 277 277 277 277 277 278 278 278 278
281 281 280 279 280 280 277 276 276 275 276 275 275 274 274 273 272 272 270 268 269 270 270 267 270 268 270 271 274 275 276 276 276 276 276 277 277 277
279 279 280 279 280 279 277 276 274 274 274 272 271 271 271 271 270 270 269 267 267 266 269 266 267 267 265 271 271 271 271 273 274 275 275 275 275 272
277 277 278 280 280 279 277 275 275 275 274 271 270 269 270 269 269 268 268 267 267 266 269 266 265 266 264 264 267 269 270 270 269 270 273 273 274 273
277 277 277 279 279 278 276 275 275 274 271 269 268 268 268 268 268 267 267 267 267 266 267 266 264 264 262 260 262 267 267 268 269 268 269 271 272 272
279 279 279 280 279 277 276 275 273 270 269 267 267 268 268 268 266 265 266 266 265 266 267 266 265 264 263 261 261 263 264 265 267 267 267 268 268 268
279 278 278 278 277 275 273 273 271 270 268 267 267 267 266 265 264 265 264 264 263 263 266 266 265 264 261 262 262 260 263 261 265 266 267 267 267 267
276 275 275 273 271 269 269 269 268 266 265 266 266 265 264 264 264 265 263 262 260 261 261 264 265 264 263 261 258 260 261 262 264 265 264 263 264 266
273 273 272 270 269 269 268 267 267 266 266 266 265 264 263 263 263 263 262 260 259 260 260 261 260 257 257 260 264 259 261 262 263 263 262 260 260 264
271 272 271 270 270 270 269 268 267 266 265 265 264 263 263 262 260 260 261 260 259 259 259 259 257 255 250 252 259 266 261 261 260 259 260 260 259 262
272 271 271 271 271 270 269 268 267 265 263 263 263 262 261 260 259 259 259 257 257 256 255 256 256 256 254 252 252 258 264 259 258 257 258 260 262 267
274 272 272 271 270 269 268 266 265 264 263 261 261 260 259 258 257 257 258 256 255 253 254 255 258 261 256 252 249 252 257 264 263 260 259 258 257 258
270 269 269 268 267 266 265 264 263 261 260 259 259 259 258 258 257 254 255 255 254 254 255 257 257 254 252 252 251 253 254 257 260 262 264 264 259 257
268 267 266 265 264 263 263 262 260 260 260 259 258 257 256 256 256 256 255 254 253 252 252 252 252 253 254 253 252 252 252 253 254 254 257 263 266 267
Wind_Speed
3 4 3 3 1 1 1 1 3 2 3 5 4 4 3 4 5 3 5 6 10 9 11 14 12 13 11 13 13 14 15 16 15 15 16 19 19 20
3 5 4 3 3 2 2 1 1 2 1 2 4 6 2 3 3 3 3 4 8 8 9 14 12 11 10 12 14 14 16 14 14 16 18 19 20 20
3 4 4 4 3 3 2 1 2 1 2 2 4 4 4 3 3 2 2 3 4 7 7 12 11 10 9 13 14 15 14 13 15 17 17 18 18 19
5 4 4 3 4 3 2 2 2 2 2 4 4 4 2 3 2 1 2 2 3 6 4 10 10 8 8 13 13 15 12 13 16 17 18 18 19 20
6 6 6 6 5 3 3 3 3 2 1 1 3 2 2 3 3 2 3 3 3 2 4 9 9 8 6 13 12 14 10 13 16 16 18 17 19 18
5 5 5 5 5 6 4 4 3 3 2 2 2 3 2 4 0 3 3 3 3 2 5 8 9 7 7 12 12 13 10 14 15 16 17 20 20 19
6 5 4 6 9 5 3 4 3 3 2 2 2 2 2 1 1 1 2 3 2 3 4 4 4 4 5 8 10 12 8 14 15 17 19 20 19 19
8 7 8 8 8 9 8 9 5 2 3 1 2 1 2 1 1 2 2 2 1 5 5 5 2 3 4 3 12 8 5 14 15 18 22 21 20 19
8 8 8 5 8 8 9 10 9 9 7 2 3 2 2 2 1 1 2 2 3 5 4 4 3 4 4 7 12 7 8 16 17 19 23 21 19 21
8 9 9 9 8 8 9 8 8 6 4 4 3 4 3 2 1 2 2 3 5 2 3 3 4 5 6 6 10 6 12 18 18 21 23 22 20 23
7 8 8 9 13 13 8 8 8 8 7 8 8 7 5 5 3 1 1 1 2 1 3 2 2 5 4 5 3 9 17 15 16 23 22 21 20 24
7 7 9 10 16 14 7 8 8 9 9 7 6 6 4 4 2 2 1 2 0 2 3 3 3 3 4 1 2 5 6 12 17 22 21 19 20 10
8 7 7 15 16 12 8 5 6 9 7 5 4 4 4 4 2 1 1 1 2 3 4 2 2 2 2 4 3 5 5 6 8 11 14 16 21 16
9 7 8 18 16 12 7 7 9 7 4 4 4 4 4 4 3 2 3 3 3 5 4 3 3 3 2 3 4 3 6 8 7 7 8 13 16 18
7 11 15 19 17 11 10 9 7 3 3 3 4 4 4 3 2 3 4 4 5 6 5 5 4 5 4 5 7 7 9 4 8 4 7 8 8 9
12 9 12 14 13 10 7 7 5 4 4 4 3 2 4 4 4 3 3 3 3 4 4 4 5 5 5 6 7 9 7 5 6 8 8 7 8 9
9 8 7 6 7 6 5 6 4 3 3 3 3 3 4 4 4 3 3 2 3 3 2 2 3 5 6 9 7 8 6 7 7 8 9 9 9 10
8 8 8 7 7 7 7 6 6 7 6 5 4 4 4 4 4 4 4 3 4 4 3 2 1 2 3 7 16 8 6 7 7 8 9 11 10 8
8 8 8 8 8 7 7 7 7 6 6 5 5 5 4 4 3 3 4 4 4 4 4 1 1 1 2 5 3 11 8 6 8 9 9 9 12 10
9 8 8 8 7 7 6 6 5 5 5 5 5 5 4 4 4 4 4 3 4 3 2 2 3 4 4 4 3 5 15 10 8 9 11 10 13 25
7 8 7 6 5 5 5 5 5 6 6 6 6 5 5 5 5 4 4 4 3 2 5 6 6 3 2 3 3 5 6 16 16 12 12 12 13 11
6 6 5 4 5 5 5 5 5 5 5 5 6 5 5 5 5 4 4 5 5 6 7 6 3 2 2 5 9 10 8 8 13 23 26 23 11 11
4 4 4 4 4 4 4 5 5 5 6 6 6 6 4 5 5 5 5 5 5 3 3 3 2 2 6 6 9 9 14 12 9 10 13 23 24 27
Wind_Direction
150 162 156 144 121 99 23 246 249 281 170 169 143 127 109 102 16 33 44 38 35 25 62 29 29 24 25 26 21 21 21 13 11 17 20 18 7 5
165 171 154 144 127 110 121 129 224 269 243 56 72 119 93 108 71 22 40 288 68 23 53 20 20 21 25 22 20 22 15 14 20 28 18 11 6 2
162 165 148 151 142 130 109 107 98 309 259 96 99 134 136 83 60 41 38 20 85 47 50 18 18 18 21 17 22 20 16 21 31 17 11 8 4 1
168 154 152 153 137 134 135 117 113 38 322 142 133 151 153 112 31 31 17 26 353 64 41 13 11 12 6 18 23 19 18 30 20 12 8 4 5 359
174 179 166 171 159 152 146 141 129 132 58 9 108 94 76 78 353 16 14 18 4 52 23 359 354 357 358 15 20 14 12 30 14 13 8 0 359 354
163 167 166 177 167 166 160 157 152 148 155 164 158 155 151 102 96 30 349 11 346 41 1 340 341 343 9 7 18 4 8 16 10 12 5 356 354 353
161 158 160 95 75 74 165 149 164 158 166 165 178 166 134 82 65 32 305 339 327 53 338 323 333 342 11 2 2 351 5 4 4 4 2 353 353 350
165 149 133 120 120 116 99 73 57 170 147 162 106 203 112 41 19 3 343 360 328 82 354 313 312 341 353 347 340 330 349 354 356 355 354 353 350 349
168 161 157 155 154 142 134 120 102 85 63 130 158 143 163 79 327 325 3 339 302 345 340 309 9 336 341 336 326 319 343 348 350 348 349 347 346 345
173 173 170 165 180 167 163 157 146 134 126 106 105 120 101 102 30 26 20 316 281 205 24 287 8 317 325 314 314 333 343 344 342 341 341 339 340 340
177 181 176 173 170 179 170 166 156 133 114 104 97 96 103 93 61 252 138 274 263 147 82 330 322 315 300 291 301 347 339 332 328 332 333 333 334 341
171 178 179 178 171 177 184 175 173 165 161 143 137 133 155 124 70 63 143 241 340 271 87 332 335 3 300 325 340 330 309 313 322 325 324 332 333 331
174 176 183 185 178 178 195 194 188 131 154 146 150 154 168 180 173 165 208 245 233 246 75 22 305 306 275 300 313 299 292 317 317 308 322 320 330 327
178 176 175 181 175 176 167 172 149 126 137 169 172 179 178 178 177 207 238 247 265 271 321 276 260 285 295 292 276 322 317 303 296 319 307 324 317 324
174 177 173 177 172 175 171 180 134 156 185 194 195 193 168 132 167 221 222 246 263 256 255 252 249 275 268 261 285 294 311 320 295 296 316 304 318 318
174 172 177 174 156 146 157 179 170 188 210 219 204 165 130 166 206 204 229 235 267 260 205 223 249 267 270 270 283 284 288 293 304 300 299 307 310 304
154 158 170 152 147 147 180 169 171 173 208 223 211 194 196 198 210 195 215 229 235 265 255 197 223 256 265 271 272 261 280 290 289 300 312 306 299 288
155 165 170 171 178 179 180 177 183 194 207 204 202 203 206 211 213 199 204 215 241 256 263 258 284 312 284 252 225 259 272 284 298 304 311 297 293 289
172 177 180 183 187 183 181 180 184 193 192 203 206 203 202 218 195 227 230 224 236 245 252 243 228 230 269 263 289 256 283 299 307 298 287 284 289 293
172 181 185 184 181 174 172 177 176 163 182 201 208 207 203 209 214 217 221 219 234 243 254 231 222 233 230 246 297 283 297 293 288 285 288 288 283 291
189 179 177 168 159 157 165 173 178 188 189 197 206 201 198 198 219 222 226 231 225 228 251 247 245 263 16 24 290 264 269 278 288 288 289 291 299 297
154 151 142 138 155 159 167 171 180 186 191 198 206 203 201 203 213 204 214 226 213 223 240 250 249 192 196 228 261 277 285 283 291 291 286 282 287 288
134 137 142 153 162 164 168 181 189 204 201 198 201 202 194 208 209 218 213 210 224 235 235 255 244 225 244 252 264 275 278 282 288 295 292 294 290 288